Content
SEND FEEDBACK

Daily
Averages
Monthly
Summary
United States of America

SOUTH LAKE TAHOE, CALIFORNIA


Home > North America > United States > California
Elevation: 6263 feet     Latitude: 38 53N     Longitude: 119 59W

WEATHER
 
SELECT A DAY
Number of Records: 176,980;   Date Range: 1/1/95 - 10/20/14
 
SHARE

PRINT THIS DATA

[ ← Previous Day ]
WEATHER ALMANAC - FEBRUARY 24, 2013
[ Next Day → ]
[ °C ]   °F
Weather ElementAverageHighLow
Temperature28.1 °F41 °F (3:53 pm)16 °F (6:53 am)
Dewpoint8.7 °F12 °F (5:53 pm)5 °F (2:53 am)
Humidity46.8 %71 % (6:53 am)23 % (1:53 pm)
Barometer30.23 in30.29 in (6:53 pm)30.15 in (2:53 am)
Wind Speed3.1 mph13.8 mph (1:53 am)
Wind Gust23 mph (1:53 am)
Weather ElementAverage
Visibility10 mi
Wind DirectionNE (48.7 °)

Weather ElementTotal
Precipitation---
Heating Degree Days36.5 (Base 65)
Averaged from 23 records on February 24, 2013
WEATHER CONDITIONS BREAKOUT
WIND DIRECTION BREAKOUT
WEATHER BY HOUR - FEBRUARY 24, 2013
[ °C ]   °F
Local TimeTemperatureDewpointHumidityBarometerVisibilityWind DirectionWind SpeedGust SpeedPrecipitationEventsConditions
1:53 AM25.0 °F6.1 °F45 %30.16 in10.0 miNE (40°)13.8 mph23.0 mphClear
2:53 AM25.0 °F5.0 °F43 %30.15 in10.0 miENE (70°)5.8 mphClear
3:53 AM21.0 °F6.1 °F53 %30.16 in10.0 miVariable4.6 mphClear
4:53 AM17.1 °F6.1 °F62 %30.20 in10.0 miSouth (180°)4.6 mphClear
5:53 AM17.1 °F7.0 °F65 %30.23 in10.0 miWSW (250°)3.5 mphClear
6:53 AM16.0 °F8.1 °F71 %30.26 in10.0 miSouth (180°)6.9 mphClear
7:53 AM19.0 °F9.0 °F65 %30.27 in10.0 miSouth (190°)4.6 mphClear
8:53 AM27.0 °F10.9 °F51 %30.26 in10.0 miCalmClear
9:53 AM30.9 °F9.0 °F40 %30.24 in10.0 miCalmClear
10:53 AM32.0 °F9.0 °F38 %30.24 in10.0 miCalmClear
11:53 AM36.0 °F10.0 °F34 %30.24 in10.0 miVariable5.8 mphClear
12:53 PM39.0 °F5.0 °F24 %30.21 in10.0 miVariable3.5 mphClear
1:53 PM39.9 °F5.0 °F23 %30.19 in10.0 miVariable3.5 mphClear
2:53 PM39.9 °F10.0 °F29 %30.19 in10.0 miNNE (20°)5.8 mphClear
3:53 PM41.0 °F6.1 °F24 %30.21 in10.0 miCalmClear
4:53 PM37.0 °F9.0 °F31 %30.23 in10.0 miNorth (10°)3.5 mphClear
5:53 PM32.0 °F12.0 °F44 %30.26 in10.0 miCalmClear
6:53 PM28.9 °F12.0 °F49 %30.29 in10.0 miCalmClear
7:53 PM28.0 °F10.9 °F49 %30.29 in10.0 miCalmClear
8:53 PM26.1 °F12.0 °F55 %30.26 in10.0 miCalmClear
9:53 PM25.0 °F12.0 °F58 %30.26 in10.0 miCalmClear
10:53 PM23.0 °F10.9 °F60 %30.25 in10.0 miCalmClear
11:53 PM21.0 °F10.0 °F63 %30.25 in10.0 miSouth (180°)4.6 mphClear
Hourly data recorded from KTVL, located miles away from South Lake Tahoe, California







STORIES FROM OUR PARTNERS